TimeCST,TemperatureF,Dew PointF,Humidity,Sea Level PressureIn,VisibilityMPH,Wind Direction,Wind SpeedMPH,Gust SpeedMPH,PrecipitationIn,Events,Conditions,WindDirDegrees,DateUTC
12:13 AM,8.6,3.2,79,30.24,10.0,Calm,Calm,-,N/A,,Clear,0,2011-11-21 06:13:00
12:53 AM,10.4,6.8,85,30.23,10.0,South,5.8,-,N/A,,Clear,170,2011-11-21 06:53:00
1:14 AM,10.4,6.8,85,30.22,10.0,SSE,6.9,-,N/A,,Clear,160,2011-11-21 07:14:00
1:34 AM,10.4,6.8,85,30.22,10.0,SSE,6.9,-,N/A,,Clear,160,2011-11-21 07:34:00
1:54 AM,10.4,6.8,85,30.21,10.0,South,5.8,-,N/A,,Clear,170,2011-11-21 07:54:00
2:34 AM,10.4,6.8,85,30.21,10.0,South,6.9,-,N/A,,Clear,170,2011-11-21 08:34:00
2:53 AM,12.2,8.6,85,30.21,10.0,South,5.8,-,N/A,,Clear,170,2011-11-21 08:53:00
3:13 AM,12.2,8.6,85,30.20,10.0,South,6.9,-,N/A,,Clear,170,2011-11-21 09:13:00
3:34 AM,12.2,8.6,85,30.20,10.0,SSE,6.9,-,N/A,,Clear,160,2011-11-21 09:34:00
4:14 AM,14.0,10.4,86,30.19,10.0,SSE,8.1,-,N/A,,Clear,160,2011-11-21 10:14:00
4:33 AM,14.0,10.4,86,30.19,10.0,SSE,5.8,-,N/A,,Clear,160,2011-11-21 10:33:00
4:54 AM,12.2,8.6,85,30.19,10.0,SSE,6.9,-,N/A,,Clear,160,2011-11-21 10:54:00
5:14 AM,12.2,8.6,85,30.19,10.0,South,4.6,-,N/A,,Clear,170,2011-11-21 11:14:00
5:34 AM,10.4,6.8,85,30.19,10.0,South,3.5,-,N/A,,Clear,170,2011-11-21 11:34:00
5:53 AM,12.2,8.6,85,30.19,10.0,South,4.6,-,N/A,,Clear,180,2011-11-21 11:53:00
6:14 AM,10.4,6.8,85,30.19,10.0,South,3.5,-,N/A,,Clear,180,2011-11-21 12:14:00
6:33 AM,10.4,8.6,92,30.19,10.0,South,4.6,-,N/A,,Clear,170,2011-11-21 12:33:00
6:54 AM,12.2,8.6,85,30.19,10.0,SSE,3.5,-,N/A,,Clear,160,2011-11-21 12:54:00
7:14 AM,12.2,8.6,85,30.20,10.0,SSE,4.6,-,N/A,,Clear,160,2011-11-21 13:14:00
7:33 AM,12.2,8.6,85,30.20,10.0,SE,4.6,-,N/A,,Clear,140,2011-11-21 13:33:00
7:54 AM,10.4,6.8,85,30.21,7.0,ESE,3.5,-,N/A,,Clear,120,2011-11-21 13:54:00
8:13 AM,12.2,8.6,85,30.21,10.0,SE,5.8,-,N/A,,Clear,130,2011-11-21 14:13:00
8:34 AM,14.0,10.4,86,30.21,10.0,SE,5.8,-,N/A,,Clear,140,2011-11-21 14:34:00
8:53 AM,14.0,10.4,86,30.22,10.0,SE,3.5,-,N/A,,Clear,130,2011-11-21 14:53:00
9:14 AM,15.8,12.2,86,30.22,10.0,Calm,Calm,-,N/A,,Clear,0,2011-11-21 15:14:00
9:34 AM,17.6,15.8,93,30.22,7.0,SE,3.5,-,N/A,,Clear,140,2011-11-21 15:34:00
9:53 AM,19.4,17.6,93,30.22,7.0,Calm,Calm,-,N/A,,Clear,0,2011-11-21 15:53:00
10:13 AM,21.2,19.4,93,30.22,10.0,Calm,Calm,-,N/A,,Clear,0,2011-11-21 16:13:00
10:33 AM,24.8,21.2,86,30.22,10.0,SSE,4.6,-,N/A,,Clear,160,2011-11-21 16:33:00
10:54 AM,24.8,21.2,86,30.22,10.0,SSE,6.9,-,N/A,,Clear,160,2011-11-21 16:54:00
11:13 AM,26.6,21.2,80,30.20,10.0,South,9.2,-,N/A,,Clear,170,2011-11-21 17:13:00
11:34 AM,26.6,21.2,80,30.20,10.0,SSE,9.2,-,N/A,,Clear,160,2011-11-21 17:34:00
11:53 AM,28.4,21.2,74,30.19,10.0,SSE,8.1,-,N/A,,Clear,160,2011-11-21 17:53:00
12:33 PM,30.2,21.2,69,30.18,10.0,South,8.1,-,N/A,,Clear,180,2011-11-21 18:33:00
1:14 PM,30.2,21.2,69,30.16,10.0,SSE,8.1,-,N/A,,Clear,160,2011-11-21 19:14:00
1:34 PM,32.0,21.2,64,30.16,10.0,SSE,5.8,-,N/A,,Clear,160,2011-11-21 19:34:00
1:53 PM,32.0,21.2,64,30.16,10.0,South,4.6,-,N/A,,Clear,170,2011-11-21 19:53:00
2:13 PM,33.8,21.2,60,30.16,10.0,South,4.6,-,N/A,,Clear,170,2011-11-21 20:13:00
2:34 PM,32.0,21.2,64,30.15,10.0,SSE,3.5,-,N/A,,Clear,160,2011-11-21 20:34:00
2:53 PM,33.8,21.2,60,30.15,10.0,SSE,5.8,-,N/A,,Clear,150,2011-11-21 20:53:00
3:13 PM,32.0,21.2,64,30.15,10.0,South,3.5,-,N/A,,Clear,170,2011-11-21 21:13:00
3:34 PM,32.0,21.2,64,30.15,10.0,SSE,3.5,-,N/A,,Clear,160,2011-11-21 21:34:00
3:53 PM,30.2,21.2,69,30.15,10.0,ESE,6.9,-,N/A,,Clear,110,2011-11-21 21:53:00
4:13 PM,28.4,21.2,74,30.15,10.0,SE,5.8,-,N/A,,Clear,130,2011-11-21 22:13:00
4:33 PM,24.8,19.4,80,30.15,10.0,East,6.9,-,N/A,,Clear,100,2011-11-21 22:33:00
4:53 PM,24.8,19.4,80,30.14,7.0,East,8.1,-,N/A,,Clear,90,2011-11-21 22:53:00
5:13 PM,23.0,19.4,86,30.14,7.0,East,6.9,-,N/A,,Clear,100,2011-11-21 23:13:00
5:53 PM,21.2,17.6,86,30.15,7.0,East,6.9,-,N/A,,Clear,90,2011-11-21 23:53:00
6:13 PM,21.2,19.4,93,30.14,5.0,East,9.2,-,N/A,,Clear,100,2011-11-22 00:13:00
6:33 PM,23.0,21.2,93,30.15,4.0,ESE,9.2,-,N/A,,Clear,110,2011-11-22 00:33:00
6:54 PM,23.0,19.4,86,30.15,3.0,ESE,8.1,-,N/A,,Clear,110,2011-11-22 00:54:00
7:13 PM,23.0,21.2,93,30.16,3.0,ESE,9.2,-,N/A,,Scattered Clouds,120,2011-11-22 01:13:00
7:34 PM,24.8,23.0,93,30.16,4.0,ESE,8.1,-,N/A,,Overcast,120,2011-11-22 01:34:00
7:54 PM,26.6,24.8,93,30.16,4.0,ESE,8.1,-,N/A,,Overcast,120,2011-11-22 01:54:00
8:13 PM,28.4,26.6,93,30.16,4.0,SE,10.4,-,N/A,,Overcast,130,2011-11-22 02:13:00
8:34 PM,30.2,26.6,86,30.15,5.0,SE,11.5,-,N/A,,Overcast,140,2011-11-22 02:34:00
8:53 PM,30.2,26.6,86,30.15,5.0,SE,12.7,-,N/A,,Overcast,140,2011-11-22 02:53:00
9:14 PM,30.2,26.6,86,30.15,5.0,SE,6.9,-,N/A,,Overcast,140,2011-11-22 03:14:00
9:33 PM,30.2,26.6,86,30.14,5.0,SE,4.6,-,N/A,,Overcast,130,2011-11-22 03:33:00
9:54 PM,30.2,26.6,86,30.15,5.0,SSE,9.2,-,N/A,,Overcast,150,2011-11-22 03:54:00
10:14 PM,30.2,26.6,86,30.15,7.0,SE,8.1,-,N/A,,Overcast,130,2011-11-22 04:14:00
10:34 PM,30.2,26.6,86,30.15,7.0,SE,11.5,-,N/A,,Overcast,140,2011-11-22 04:34:00
10:54 PM,30.2,26.6,86,30.14,7.0,SE,9.2,-,N/A,,Overcast,130,2011-11-22 04:54:00
11:13 PM,32.0,26.6,80,30.15,7.0,SE,6.9,-,N/A,,Overcast,130,2011-11-22 05:13:00
11:34 PM,32.0,26.6,80,30.14,7.0,ESE,6.9,-,N/A,,Overcast,120,2011-11-22 05:34:00
11:53 PM,32.0,26.6,80,30.15,7.0,ESE,6.9,-,N/A,,Overcast,120,2011-11-22 05:53:00